Tracking 26940 objects as of 28-Jan-2023
HD Live streaming from Space Station
objects crossing your sky now

ASTROCAST-0303

Track ASTROCAST-0303 now!
10-day predictions


NORAD ID: 54368
Int'l Code: 2022-158H
Perigee: 503.2 km
Apogee: 516.7 km
Inclination: 97.4 °
Period: 94.7 minutes
Semi major axis: 6880 km
RCS: Unknown
Launch date: November 26, 2022
Source: (SWTZ)
Launch site: SRIHARIKOTA (SRI)
Your satellite tracking list
Your tracking list is empty




NASA's NSSDC Master Catalog

Two Line Element Set (TLE):
1 54368U 22158H   23028.37020800  .00010111  00000-0  45803-3 0  9996
2 54368  97.4456 127.8214 0009804  64.8851   7.6889 15.21018932  9572
Source of the keplerian elements: AFSPC